Location: Dana
(41.8364°N, 106.7042°W)
Time: 20:18:32
(UTC+00:00)

Tiangong - Pass Details

Date: 14 April 2026
Orbit: 374 x 381 km, 41.5° (Epoch: 9 May)

Event Time Altitude Azimuth Distance (km) Brightness Sun altitude
Rises 02:27:17 0° 270° (W) 2,237 3.3 -8.2°
Reaches altitude 10° 02:30:27 10° 235° (SW) 1,379 1.2 -8.8°
Maximum altitude 02:31:34 12° 214° (SSW) 1,290 0.7 -9.0°
Drops below altitude 10° 02:32:42 10° 192° (SSW) 1,374 0.6 -9.2°
Enters shadow 02:34:50 - 164° (SSE) 1,889 1.0 -9.5°
